Regional Weather Roundup
Issued by NWS

Home | Current Version | Previous Version | Graphics & Text | Print | Product List | Glossary On
Versions: 1 2 3 4 5 6 7 8 9 10 11 12 13 14 15 16 17 18 19 20 21 22 23 24 25 26 27
000
ASUS45 KCYS 270210
RWRWY

WYOMING REGIONAL WEATHER ROUNDUP
NATIONAL WEATHER SERVICE CHEYENNE WY
800 PM MDT FRI AUG 26 2016

NOTE:  "FAIR" INDICATES FEW OR NO CLOUDS BELOW 12,000 FEET
WITH NO SIGNIFICANT WEATHER AND/OR OBSTRUCTIONS TO VISIBILITY.

WYZ001-270300-
YELLOWSTONE NATIONAL PARK

CITY           SKY/WX    TMP DP  RH WIND       PRES   REMARKS
LK YELLOWSTONE   N/A     56  28  34 CALM      30.17R
W YELLOWSTONE  NOT AVBL

$$
WYZ002>013-054>058-071-098>099-270300-
NORTHERN WYOMING

CITY           SKY/WX    TMP DP  RH WIND       PRES   REMARKS
JACKSON        CLEAR     63  19  19 W5        30.09R
CODY           FAIR      59  45  58 CALM      30.05S
GREYBULL       FAIR      64  41  42 E5        29.97F
WORLAND        FAIR      62  42  47 S5        29.98F
SHERIDAN       FAIR      56  45  66 S8        30.03S
BUFFALO        FAIR      57  41  55 N20G26    30.07R
GILLETTE       FAIR      60  49  66 E8        30.01S
HULETT         FAIR      54  50  87 SE14      30.05S
NEWCASTLE      RAIN      63  48  59 CALM      30.04R

$$
WYZ014>020-022>026-101>103-270300-
CENTRAL WYOMING

CITY           SKY/WX    TMP DP  RH WIND       PRES   REMARKS
BIG PINEY      FAIR      59  32  36 SE5       30.14R
PINEDALE       FAIR      59  32  36 S7        30.14S
DUBOIS         FAIR      55  32  41 S8        30.11S
LANDER         MOCLDY    63  42  46 E9        30.03S
RIVERTON       FAIR      63  44  50 E3        30.05R
CASPER         LGT RAIN  59  46  62 S21G30    30.10R
DOUGLAS        FAIR      65  47  52 SE17G24   30.03R

$$
WYZ021-027>030-104>119-270300-
SOUTHERN WYOMING

CITY           SKY/WX    TMP DP  RH WIND       PRES   REMARKS
EVANSTON       FAIR      63  15  15 W15       30.15R
FORT BRIDGER   FAIR      65  23  20 W9        30.16R
ROCK SPRINGS   MOCLDY    61  34  36 SE7       30.13R
DIXON          FAIR      60  39  45 S12       30.20F
RAWLINS        FAIR      60  36  40 NW13      30.16R
SARATOGA       MOCLDY    61  32  33 SW14      30.17R
LARAMIE        CLOUDY    61  32  33 SW20G25   30.17R
CHEYENNE       FAIR      56  51  84 CALM      30.13R
TORRINGTON     FAIR      61  54  77 SE9       30.02S
PINE BLUFFS    FAIR      55  50  82 CALM      30.09S

$$




USA.gov is the U.S. government's official web portal to all federal, state and local government web resources and services.